DW3649 Athens GR current weather conditions

sailwx.info

Wind from 049 at 1 knots

Air temperature 23.3° C
Dewpoint 13.8° C

Last reported at 2020-Jul-11 00:01 UTC.
Time now 2020-Jul-11 00:23 UTC

Location: N 37°58' E 023°45'.
View on Google Maps.

See reports from other nearby stations

  
Tides and Currents Weather Stations Pressure Air Temp Water Temp Dewpoint Dewpoint Depression Visibility Wind Speed Wind Dir Waves Ship Positions
date/time (UTC)wind fromknots sea level pressurealtimeterstation pressurevisibilityair tempwater tempwave heightnotes
2020-Jul-11 00:01 049 1 23.3
2020-Jul-10 23:46 049 1 23.9
2020-Jul-10 23:31 046 1 23.9
2020-Jul-10 23:16 047 1 23.9
2020-Jul-10 23:01 057 1 23.9
2020-Jul-10 22:45 042 3 23.9
2020-Jul-10 22:31 046 1 24.4
2020-Jul-10 22:15 031 2 24.4
2020-Jul-10 22:01 019 1 24.4
2020-Jul-10 21:46 022 1 24.4
2020-Jul-10 21:30 044 2 24.4
2020-Jul-10 21:17 048 1 25.0
2020-Jul-10 21:01 049 1 25.0
2020-Jul-10 20:45 034 1 25.0
2020-Jul-10 20:31 009 1 25.0
2020-Jul-10 20:15 335 1 25.0
2020-Jul-10 20:00 351 1 25.0
2020-Jul-10 19:46 025 1 25.0
2020-Jul-10 19:31 029 2 25.6
2020-Jul-10 19:15 016 2 25.6
2020-Jul-10 19:00 030 2 25.6
2020-Jul-10 18:45 355 3 25.6
2020-Jul-10 18:30 051 4 25.6
2020-Jul-10 18:15 029 3 26.1
2020-Jul-10 18:00 032 3 26.1
2020-Jul-10 17:45 036 5 26.7
2020-Jul-10 17:31 038 4 26.7
2020-Jul-10 17:15 038 3 27.2
2020-Jul-10 17:00 058 5 27.2
2020-Jul-10 16:45 005 5 27.2
2020-Jul-10 16:30 022 5 27.8
2020-Jul-10 16:15 038 5 27.8
2020-Jul-10 16:00 061 5 28.3
2020-Jul-10 15:45 024 3 28.3
2020-Jul-10 15:30 005 6 28.3
2020-Jul-10 15:15 039 4 28.9
2020-Jul-10 15:00 011 4 29.4
2020-Jul-10 14:45 057 6 29.4
2020-Jul-10 14:30 055 4 29.4
2020-Jul-10 14:15 036 4 29.4
2020-Jul-10 14:00 041 3 29.4
2020-Jul-10 13:45 049 5 29.4
2020-Jul-10 13:30 037 4 30.0
2020-Jul-10 13:15 034 4 30.0
2020-Jul-10 13:00 360 6 29.4
2020-Jul-10 12:46 355 3 30.0
2020-Jul-10 12:33 315 5 30.0
2020-Jul-10 12:17 015 5 30.0
2020-Jul-10 12:02 350 5 30.0
2020-Jul-10 11:47 038 5 29.4
2020-Jul-10 11:31 013 4 30.0
2020-Jul-10 11:16 024 5 29.4
2020-Jul-10 11:02 355 3 30.0
2020-Jul-10 10:46 326 4 30.0
2020-Jul-10 10:31 019 4 29.4
2020-Jul-10 10:18 347 4 28.9
2020-Jul-10 10:02 330 5 28.9
2020-Jul-10 09:46 029 4 28.9
2020-Jul-10 09:31 005 5 28.3
2020-Jul-10 09:17 017 6 28.3
2020-Jul-10 09:01 055 6 28.3
2020-Jul-10 08:45 017 5 28.3
2020-Jul-10 08:31 355 6 27.8
2020-Jul-10 08:15 015 5 27.8
2020-Jul-10 08:01 037 3 27.8
2020-Jul-10 07:46 348 6 27.2
2020-Jul-10 07:31 331 4 27.2
2020-Jul-10 07:15 355 5 27.2
2020-Jul-10 07:00 052 6 27.2
2020-Jul-10 06:46 040 5 26.7
2020-Jul-10 06:31 027 5 26.7
2020-Jul-10 06:16 055 4 26.7
2020-Jul-10 06:00
2020-Jul-10 05:30 034 4 25.6
2020-Jul-10 05:15 057 3 25.0
2020-Jul-10 05:00 042 4 25.0
2020-Jul-10 04:45 052 4 24.4
2020-Jul-10 04:30 057 4 23.9
2020-Jul-10 04:15 049 5 23.9
2020-Jul-10 04:00 049 3 23.3
2020-Jul-10 03:45 034 3 23.3
2020-Jul-10 03:32 035 4 22.8
2020-Jul-10 03:16 054 3 22.8
2020-Jul-10 03:01 018 2 22.8
2020-Jul-10 02:46 039 3 23.3
2020-Jul-10 02:31 014 3 23.3
2020-Jul-10 02:16 012 3 23.3
2020-Jul-10 02:01 044 3 23.3
2020-Jul-10 01:46 351 2 23.3
2020-Jul-10 01:33 026 3 22.8
2020-Jul-10 01:17 040 3 23.3
2020-Jul-10 01:01 005 2 23.3
2020-Jul-10 00:47 047 3 23.3
2020-Jul-10 00:30 015 1 23.3
2020-Jul-10 00:00 027 1 23.3
2020-Jul-09 23:47 034 2 23.3
2020-Jul-09 23:31 044 2 23.3
2020-Jul-09 23:16 018 2 23.3
2020-Jul-09 23:00 038 2 23.3
2020-Jul-09 22:47 052 2 23.3
2020-Jul-09 22:32 032 3 23.3
2020-Jul-09 22:16 034 3 23.3
2020-Jul-09 22:01 048 3 23.3
2020-Jul-09 21:46 032 1 23.9
2020-Jul-09 21:31 035 1 23.9
2020-Jul-09 21:15 029 1 23.9
2020-Jul-09 21:00 029 3 23.9
2020-Jul-09 20:45 016 2 23.9
2020-Jul-09 20:30 340 1 23.9
2020-Jul-09 20:15 039 1 23.9
2020-Jul-09 20:01 032 1 23.9
2020-Jul-09 19:45 035 2 23.9
2020-Jul-09 19:30 034 1 24.4
2020-Jul-09 19:15 023 2 24.4
2020-Jul-09 19:00 043 2 24.4
2020-Jul-09 18:45 355 1 24.4
2020-Jul-09 18:30 054 3 25.0
2020-Jul-09 18:15 063 3 25.0
2020-Jul-09 18:00 329 4 25.0
2020-Jul-09 17:45 019 5 25.6
2020-Jul-09 17:30 342 4 26.1
2020-Jul-09 17:15 005 5 26.1
2020-Jul-09 17:00 015 5 26.7
2020-Jul-09 16:45 341 5 26.7
2020-Jul-09 16:30 326 5 26.7
2020-Jul-09 16:15 019 6 27.2
2020-Jul-09 16:00 009 5 27.2
2020-Jul-09 15:45 355 5 27.8
2020-Jul-09 15:30 334 5 27.8
2020-Jul-09 15:15 044 5 27.8
2020-Jul-09 15:00 032 5 28.3
2020-Jul-09 14:45 005 5 28.3
2020-Jul-09 14:30 348 4 28.3
2020-Jul-09 14:15 086 5 28.9
2020-Jul-09 14:00 319 5 28.9
2020-Jul-09 13:45 023 4 28.9
2020-Jul-09 13:30 338 4 28.9
2020-Jul-09 13:15 026 3 29.4
2020-Jul-09 13:00 334 4 28.9
2020-Jul-09 12:45 028 4 28.9
2020-Jul-09 12:30 355 4 28.9
2020-Jul-09 12:16 053 4 28.9
2020-Jul-09 12:02 047 4 28.9
2020-Jul-09 11:46 017 4 28.9
2020-Jul-09 11:31 046 5 28.3
2020-Jul-09 11:17 041 4 28.3
2020-Jul-09 11:01 022 4 28.3
2020-Jul-09 10:46 036 3 28.3
2020-Jul-09 10:31 021 5 27.8
2020-Jul-09 10:16 044 4 27.8
2020-Jul-09 10:01 021 5 27.8
2020-Jul-09 09:46 037 4 27.8
2020-Jul-09 09:31 042 5 27.8
2020-Jul-09 09:16 076 4 27.2
2020-Jul-09 09:00 005 4 27.2
2020-Jul-09 08:46 055 5 27.2
2020-Jul-09 08:31 025 5 26.7
2020-Jul-09 08:16 045 5 26.7
2020-Jul-09 08:02 325 6 26.1
2020-Jul-09 07:45 049 5 26.1
2020-Jul-09 07:32 013 4 26.1
2020-Jul-09 07:16 009 5 25.6
2020-Jul-09 07:01 347 5 25.6
2020-Jul-09 06:46 042 6 25.6
2020-Jul-09 06:31 327 4 25.0
2020-Jul-09 06:15 355 5 25.0
2020-Jul-09 06:01 041 4 25.0
2020-Jul-09 05:45 076 4 24.4
2020-Jul-09 05:31 063 4 24.4
2020-Jul-09 05:15 351 3 24.4
2020-Jul-09 05:00 333 5 23.9
2020-Jul-09 04:45 035 3 23.3
2020-Jul-09 04:30 010 4 23.3
2020-Jul-09 04:15 339 4 23.3
2020-Jul-09 04:00 042 2 22.8
2020-Jul-09 03:45 020 3 22.8
2020-Jul-09 03:30 071 4 22.8
2020-Jul-09 03:15 042 3 22.8
2020-Jul-09 03:00 037 5 22.8
2020-Jul-09 02:45 046 4 22.8
2020-Jul-09 02:30 360 4 22.8
2020-Jul-09 02:15 005 4 22.8
2020-Jul-09 02:00 034 6 22.8
2020-Jul-09 01:45 040 5 23.3
2020-Jul-09 01:30 061 5 23.3
2020-Jul-09 01:16 055 5 23.3
2020-Jul-09 01:01 050 5 23.3
2020-Jul-09 00:47 026 4 23.9
2020-Jul-09 00:32 028 2 23.9
2020-Jul-09 00:16 057 3 23.9
2020-Jul-09 00:02 054 4 23.9